Grand Rapids, MN

3:27 AM CST on February 13, 2016 (GMT -0600)
Grand Rapids-Itasca County-Newstrom Field

Weather History for KGPZ - January, 2012

Change the Weather History Date:

Sunday, January 1, 2012

  Actual Average Record
Temperature  
Mean Temperature 22 °F -  
Max Temperature 28 °F 16 °F 44 °F (1964)
Min Temperature 15 °F 0 °F -36 °F (1979)
Degree Days  
Heating Degree Days 44    
Moisture  
Dew Point 15 °F    
Average Humidity 70    
Maximum Humidity 80    
Minimum Humidity 62    
Precipitation  
Precipitation 0.00 in - - ()
Sea Level Pressure  
Sea Level Pressure 29.88 in    
Wind  
Wind Speed 19 mph (NW)    
Max Wind Speed 28 mph    
Max Gust Speed 37 mph    
Visibility 8 miles    
Events      
Averages and records for this station are not official NWS values.
T = Trace of Precipitation, MM = Missing Value Source: NWS Daily Summary

Daily Weather History Graph

Daily Weather History Graph

Search for Another Location

Airport or City:

Trip Planner

Search our weather history database for the weather conditions in past years. The results will help you decide how hot, cold, wet, or windy it might be!

Date:

Astronomy

Jan. 01, 2012 Rise Set
Actual Time 8:00 AM CST 4:34 PM CST
Civil Twilight 7:25 AM CST 5:09 PM CST
Nautical Twilight 6:46 AM CST 5:48 PM CST
Astronomical Twilight 6:09 AM CST 6:25 PM CST
Moon 11:37 AM CST (1/1) 12:40 AM CST (1/1)
Length of Visible Light 9h 44m
Length of Day
8h 33m
First Quarter, 55% of the Moon is Illuminated
Jan 1
First Quarter
Jan 9
Full
Jan 16
Last Quarter
Jan 23
New
Jan 30
First Quarter

Hourly Weather History & Observations

Time (CST) Temp. Windchill Dew Point Humidity Pressure Visibility Wind Dir Wind Speed Gust Speed Precip Events Conditions
12:15 AM 28.4 °F 15.4 °F 21.2 °F 74% 29.76 in 10.0 mi NW 19.6 mph 27.6 mph N/A   Overcast
12:35 AM 28.4 °F 13.8 °F 21.2 °F 74% 29.75 in 10.0 mi NW 25.3 mph 32.2 mph N/A   Overcast
12:55 AM 28.4 °F 15.4 °F 19.4 °F 69% 29.76 in 10.0 mi NW 19.6 mph 25.3 mph N/A   Overcast
1:15 AM 28.4 °F 15.4 °F 19.4 °F 69% 29.76 in 10.0 mi NW 19.6 mph 24.2 mph N/A   Overcast
1:35 AM 26.6 °F 12.0 °F 19.4 °F 74% 29.76 in 10.0 mi NW 23.0 mph 31.1 mph N/A   Overcast
1:55 AM 26.6 °F 12.0 °F 17.6 °F 69% 29.77 in 10.0 mi NW 23.0 mph 32.2 mph N/A   Overcast
2:15 AM - - - N/A% 29.77 in 10.0 mi NW 24.2 mph 29.9 mph N/A   Overcast
2:35 AM 26.6 °F 13.1 °F 17.6 °F 69% 29.78 in 10.0 mi NW 19.6 mph 32.2 mph N/A   Overcast
2:55 AM 26.6 °F 14.7 °F 17.6 °F 69% 29.78 in 10.0 mi NW 15.0 mph 24.2 mph N/A   Overcast
3:15 AM 26.6 °F 15.2 °F 19.4 °F 74% 29.78 in 10.0 mi WNW 13.8 mph - N/A   Overcast
3:35 AM 26.6 °F 14.7 °F 19.4 °F 74% 29.78 in 10.0 mi WNW 15.0 mph 20.7 mph N/A   Overcast
3:55 AM 26.6 °F 15.7 °F 17.6 °F 69% 29.78 in 10.0 mi WNW 12.7 mph 20.7 mph N/A   Overcast
4:15 AM 26.6 °F 16.2 °F 19.4 °F 74% 29.78 in 10.0 mi WNW 11.5 mph 21.9 mph N/A   Overcast
4:35 AM 26.6 °F 14.3 °F 19.4 °F 74% 29.78 in 10.0 mi WNW 16.1 mph 23.0 mph N/A   Overcast
4:55 AM 26.6 °F 14.3 °F 19.4 °F 74% 29.78 in 10.0 mi WNW 16.1 mph 25.3 mph N/A   Overcast
5:15 AM 26.6 °F 15.2 °F 19.4 °F 74% 29.78 in 10.0 mi WNW 13.8 mph 23.0 mph N/A   Overcast
5:35 AM 26.6 °F 14.7 °F 19.4 °F 74% 29.78 in 10.0 mi WNW 15.0 mph - N/A   Overcast
5:55 AM 26.6 °F 14.7 °F 19.4 °F 74% 29.78 in 10.0 mi WNW 15.0 mph 20.7 mph N/A   Overcast
6:15 AM 26.6 °F 15.2 °F 19.4 °F 74% 29.78 in 10.0 mi WNW 13.8 mph 20.7 mph N/A   Overcast
6:35 AM 26.6 °F 13.8 °F 19.4 °F 74% 29.79 in 10.0 mi WNW 17.3 mph 21.9 mph N/A   Overcast
6:55 AM 26.6 °F 13.4 °F 19.4 °F 74% 29.78 in 10.0 mi WNW 18.4 mph 23.0 mph N/A   Overcast
7:15 AM 26.6 °F 14.3 °F 19.4 °F 74% 29.79 in 9.0 mi WNW 16.1 mph 21.9 mph N/A   Overcast
7:35 AM 26.6 °F 13.8 °F 19.4 °F 74% 29.79 in 5.0 mi WNW 17.3 mph 23.0 mph N/A   Overcast
7:55 AM 26.6 °F 14.7 °F 19.4 °F 74% 29.80 in 5.0 mi WNW 15.0 mph 19.6 mph N/A   Overcast
8:15 AM 24.8 °F 12.4 °F 19.4 °F 80% 29.81 in 5.0 mi WNW 15.0 mph 27.6 mph N/A   Overcast
8:35 AM 24.8 °F 12.4 °F 19.4 °F 80% 29.81 in 3.0 mi WNW 15.0 mph 20.7 mph N/A   Mostly Cloudy
8:55 AM 24.8 °F 11.5 °F 17.6 °F 74% 29.81 in 4.0 mi WNW 17.3 mph 26.5 mph N/A   Overcast
9:15 AM 24.8 °F 11.1 °F 17.6 °F 74% 29.82 in 4.0 mi NW 18.4 mph 31.1 mph N/A   Overcast
9:35 AM 24.8 °F 9.6 °F 17.6 °F 74% 29.83 in 2.0 mi NW 23.0 mph 31.1 mph N/A   Overcast
9:55 AM 24.8 °F 10.0 °F 15.8 °F 69% 29.84 in 8.0 mi WNW 21.9 mph 33.4 mph N/A   Overcast
10:15 AM - - - N/A% 29.85 in 6.0 mi NW 27.6 mph 34.5 mph N/A   Overcast
10:35 AM 24.8 °F 10.3 °F 14.0 °F 64% 29.86 in 10.0 mi NW 20.7 mph 31.1 mph N/A   Overcast
10:55 AM 24.8 °F 9.6 °F 15.8 °F 69% 29.87 in 6.0 mi NW 23.0 mph 31.1 mph N/A   Overcast
11:15 AM 24.8 °F 11.1 °F 15.8 °F 69% 29.88 in 5.0 mi NW 18.4 mph 28.8 mph N/A   Overcast
11:35 AM 23.0 °F 7.6 °F 15.8 °F 74% 29.88 in 4.0 mi NW 21.9 mph 26.5 mph N/A   Overcast
11:55 AM 23.0 °F 8.3 °F 14.0 °F 68% 29.89 in 3.0 mi NW 19.6 mph 32.2 mph N/A   Overcast
12:15 PM 23.0 °F 6.9 °F 12.2 °F 63% 29.90 in 5.0 mi NW 24.2 mph 36.8 mph N/A   Overcast
12:35 PM 21.2 °F 4.2 °F 12.2 °F 68% 29.91 in 5.0 mi NW 25.3 mph 32.2 mph N/A   Overcast
12:55 PM 21.2 °F 6.0 °F 10.4 °F 63% 29.92 in 7.0 mi NW 19.6 mph 34.5 mph N/A   Overcast
1:15 PM 21.2 °F 5.6 °F 12.2 °F 68% 29.93 in 9.0 mi WNW 20.7 mph 31.1 mph N/A   Overcast
1:35 PM 21.2 °F 7.3 °F 10.4 °F 63% 29.95 in 7.0 mi NW 16.1 mph 32.2 mph N/A   Overcast
1:55 PM 19.4 °F 2.1 °F 10.4 °F 68% 29.96 in 6.0 mi NW 24.2 mph 34.5 mph N/A   Overcast
2:15 PM 19.4 °F 4.5 °F 10.4 °F 68% 29.98 in 5.0 mi NW 17.3 mph 27.6 mph N/A   Overcast
2:35 PM 19.4 °F 2.5 °F 10.4 °F 68% 29.99 in 4.0 mi NW 23.0 mph 28.8 mph N/A   Overcast
2:55 PM 19.4 °F 1.8 °F 10.4 °F 68% 30.00 in 9.0 mi NW 25.3 mph 32.2 mph N/A   Overcast
3:15 PM 19.4 °F 2.8 °F 8.6 °F 63% 30.02 in 10.0 mi WNW 21.9 mph 32.2 mph N/A   Overcast
3:35 PM 19.4 °F 2.8 °F 8.6 °F 63% 30.04 in 10.0 mi WNW 21.9 mph 31.1 mph N/A   Overcast
3:55 PM 17.6 °F 0.1 °F 8.6 °F 68% 30.06 in 10.0 mi WNW 23.0 mph 29.9 mph N/A   Overcast
4:15 PM 17.6 °F 1.3 °F 8.6 °F 68% 30.07 in 10.0 mi NW 19.6 mph 28.8 mph N/A   Overcast
4:35 PM 17.6 °F 1.7 °F 6.8 °F 63% 30.09 in 9.0 mi NW 18.4 mph 29.9 mph N/A   Overcast
4:55 PM 17.6 °F 0.5 °F 6.8 °F 63% 30.10 in 10.0 mi NW 21.9 mph 26.5 mph N/A   Overcast
5:15 PM 17.6 °F 0.9 °F 6.8 °F 63% 30.11 in 10.0 mi NW 20.7 mph 32.2 mph N/A   Overcast
5:35 PM 17.6 °F 0.1 °F 6.8 °F 63% 30.13 in 10.0 mi NW 23.0 mph 33.4 mph N/A   Overcast
5:55 PM 15.8 °F -1.5 °F 6.8 °F 68% 30.14 in 10.0 mi NW 20.7 mph 34.5 mph N/A   Overcast
6:15 PM 15.8 °F -2.7 °F 5.0 °F 62% 30.14 in 8.0 mi NW 24.2 mph 32.2 mph N/A   Overcast
6:35 PM 15.8 °F -2.3 °F 3.2 °F 58% 30.15 in 10.0 mi NW 23.0 mph 33.4 mph N/A   Overcast
6:55 PM 15.8 °F -2.3 °F 5.0 °F 62% 30.16 in 10.0 mi NW 23.0 mph 34.5 mph N/A   Overcast
7:15 PM 15.8 °F -4.1 °F 5.0 °F 62% 30.16 in 9.0 mi NW 28.8 mph 40.3 mph N/A   Overcast
7:35 PM 15.8 °F -1.9 °F 3.2 °F 58% 30.17 in 10.0 mi NW 21.9 mph 34.5 mph N/A   Overcast
7:55 PM 15.8 °F -1.5 °F 3.2 °F 58% 30.17 in 10.0 mi NW 20.7 mph 35.7 mph N/A   Overcast
8:15 PM 15.8 °F -2.7 °F 3.2 °F 58% 30.17 in 10.0 mi NW 24.2 mph 29.9 mph N/A   Overcast
8:35 PM - - - N/A% 30.17 in 9.0 mi NNW 28.8 mph 40.3 mph N/A   Overcast
8:55 PM - - - N/A% 30.17 in 10.0 mi NW 25.3 mph 36.8 mph N/A   Overcast
9:15 PM 15.8 °F -1.9 °F 5.0 °F 62% 30.18 in 8.0 mi NW 21.9 mph 35.7 mph N/A   Overcast
9:35 PM 15.8 °F -3.4 °F 5.0 °F 62% 30.19 in 10.0 mi NW 26.5 mph 35.7 mph N/A   Overcast
9:55 PM 15.8 °F -3.4 °F 3.2 °F 58% 30.18 in 10.0 mi NW 26.5 mph 34.5 mph N/A   Overcast
10:15 PM 15.8 °F -4.1 °F 3.2 °F 58% 30.18 in 10.0 mi NW 28.8 mph 39.1 mph N/A   Overcast
10:35 PM 15.8 °F -3.7 °F 3.2 °F 58% 30.19 in 10.0 mi NW 27.6 mph 35.7 mph N/A   Overcast
11:15 PM 15.8 °F -3.1 °F 1.4 °F 53% 30.20 in 10.0 mi NW 25.3 mph 41.4 mph N/A   Mostly Cloudy
11:35 PM - - - N/A% 30.20 in 10.0 mi NW 27.6 mph 35.7 mph N/A   Overcast
11:55 PM 15.8 °F -2.7 °F 3.2 °F 58% 30.21 in 10.0 mi NW 24.2 mph 35.7 mph N/A   Overcast